TimeCDT,TemperatureF,Dew PointF,Humidity,Sea Level PressureIn,VisibilityMPH,Wind Direction,Wind SpeedMPH,Gust SpeedMPH,PrecipitationIn,Events,Conditions,WindDirDegrees,DateUTC
12:53 AM,71.1,70.0,96,30.10,4.0,Calm,Calm,-,N/A,,Clear,0,2013-08-25 05:53:00
1:53 AM,70.0,69.1,97,30.10,4.0,Calm,Calm,-,N/A,,Clear,0,2013-08-25 06:53:00
2:48 AM,69.8,69.8,100,30.14,2.0,Calm,Calm,-,N/A,,Clear,0,2013-08-25 07:48:00
2:53 AM,70.0,69.1,97,30.11,3.0,Calm,Calm,-,N/A,,Clear,0,2013-08-25 07:53:00
3:53 AM,69.1,68.0,96,30.12,4.0,Calm,Calm,-,N/A,,Clear,0,2013-08-25 08:53:00
4:17 AM,69.8,68.0,94,30.15,2.5,Calm,Calm,-,N/A,,Clear,0,2013-08-25 09:17:00
4:31 AM,69.8,68.0,94,30.16,3.0,Calm,Calm,-,N/A,,Clear,0,2013-08-25 09:31:00
4:41 AM,69.8,68.0,94,30.16,2.5,Calm,Calm,-,N/A,,Clear,0,2013-08-25 09:41:00
4:53 AM,68.0,68.0,100,30.12,2.5,Calm,Calm,-,N/A,,Clear,0,2013-08-25 09:53:00
5:02 AM,69.8,69.8,100,30.16,3.0,Calm,Calm,-,N/A,,Clear,0,2013-08-25 10:02:00
5:24 AM,68.0,68.0,100,30.16,2.0,Calm,Calm,-,N/A,,Clear,0,2013-08-25 10:24:00
5:53 AM,68.0,68.0,100,30.14,2.5,Calm,Calm,-,N/A,,Clear,0,2013-08-25 10:53:00
6:25 AM,68.0,68.0,100,30.18,3.0,Calm,Calm,-,N/A,,Clear,0,2013-08-25 11:25:00
6:38 AM,68.0,66.2,94,30.18,1.8,Calm,Calm,-,N/A,,Clear,0,2013-08-25 11:38:00
6:50 AM,68.0,66.2,94,30.19,3.0,Calm,Calm,-,N/A,,Clear,0,2013-08-25 11:50:00
6:53 AM,68.0,66.9,96,30.16,3.0,Calm,Calm,-,N/A,,Clear,0,2013-08-25 11:53:00
7:01 AM,68.0,68.0,100,30.19,2.5,Calm,Calm,-,N/A,,Clear,0,2013-08-25 12:01:00
7:38 AM,69.8,69.8,100,30.20,3.0,Calm,Calm,-,N/A,,Clear,0,2013-08-25 12:38:00
7:53 AM,72.0,71.1,97,30.17,3.0,Calm,Calm,-,N/A,,Clear,0,2013-08-25 12:53:00
8:53 AM,78.1,72.0,81,30.18,6.0,South,5.8,-,N/A,,Haze,170,2013-08-25 13:53:00
9:53 AM,82.0,73.9,76,30.17,7.0,SSE,5.8,-,N/A,,Clear,150,2013-08-25 14:53:00
10:53 AM,86.0,73.9,67,30.17,9.0,SSE,6.9,-,N/A,,Clear,160,2013-08-25 15:53:00
11:53 AM,89.1,73.9,61,30.16,10.0,Variable,3.5,-,N/A,,Clear,0,2013-08-25 16:53:00
12:53 PM,90.0,73.9,59,30.14,10.0,Variable,3.5,-,N/A,,Clear,0,2013-08-25 17:53:00
1:53 PM,91.9,73.0,54,30.13,10.0,Variable,3.5,-,N/A,,Clear,0,2013-08-25 18:53:00
2:53 PM,93.0,73.0,52,30.12,10.0,ESE,3.5,-,N/A,,Scattered Clouds,120,2013-08-25 19:53:00
3:53 PM,91.9,71.1,50,30.10,10.0,SSE,6.9,-,N/A,,Clear,150,2013-08-25 20:53:00
4:53 PM,91.9,71.1,50,30.10,10.0,SSE,6.9,-,N/A,,Clear,160,2013-08-25 21:53:00
5:53 PM,90.0,71.1,54,30.10,10.0,SSE,5.8,-,N/A,,Partly Cloudy,150,2013-08-25 22:53:00
6:53 PM,89.1,71.1,55,30.09,10.0,SE,5.8,-,N/A,,Clear,130,2013-08-25 23:53:00
7:53 PM,82.0,73.9,76,30.09,10.0,Calm,Calm,-,N/A,,Clear,0,2013-08-26 00:53:00
8:53 PM,77.0,73.9,90,30.10,10.0,Calm,Calm,-,N/A,,Clear,0,2013-08-26 01:53:00
10:53 PM,73.9,73.0,97,30.14,8.0,Calm,Calm,-,N/A,,Clear,0,2013-08-26 03:53:00
11:53 PM,73.0,72.0,96,30.14,6.0,Calm,Calm,-,N/A,,Clear,0,2013-08-26 04:53:00